User: anonymous   Login
Location: Unspecified
(0.0000°N, 0.0000°E)
Time: 10:21:21
(UTC+00:00)
Language:

deb r/b Ablestar - Orbit

View from above orbital plane
View from above orbital plane
View from above satellite
View from above satellite

Ground track
Ground track

The orbit data is extracted from the following two-line orbital elements,

1 00335U 61015DM  18113.52277639  .00000353  00000-0  21401-3 0  9991
2 00335  66.8421 169.4826 0044421 221.5164 138.2552 14.16955378905450
Epoch (UTC): 23 April 2018 12:32:47
Eccentricity: 0.0044421
inclination: 66.8421°
perigee height: 803 km
apogee height: 868 km
right ascension of ascending node: 169.4826°
argument of perigee: 221.5164°
revolutions per day: 14.16955378
mean anomaly at epoch: 138.2552°
orbit number at epoch: 90545

The dashed part of the orbit path shows where the satellite is in the earth's shadow,  

DLR